Regional Weather Roundup
Issued by NWS Northern Indiana

Home | Current Version | Previous Version | Graphics & Text | Print | Product List | Glossary On
Versions: 1 2 3 4 5 6 7 8 9 10 11 12 13 14 15 16 17 18 19 20 21 22 23 24 25 26 27 28 29 30 31 32 33 34 35 36 37 38 39 40 41 42 43 44 45 46 47 48 49 50
000
ASUS43 KIWX 031800
RWRIWX

KIWX WEATHER ROUNDUP
NATIONAL WEATHER SERVICE NORTHERN INDIANA
200 PM EDT MON AUG 03 2015

NOTE: "FAIR" INDICATES FEW OR NO CLOUDS BELOW 12,000 FEET WITH NO
SIGNIFICANT WEATHER AND/OR OBSTRUCTIONS TO VISIBILITY.

* THESE STATIONS ARE NOT UNDER NWS QUALITY CONTROL. THEY ALSO MAY NOT
  REPORT WEATHER SUCH AS PRECIPITATION OR FOG.

INZ001>027-031900-
NORTHERN INDIANA

CITY           SKY/WX    TMP DP  RH WIND       PRES   REMARKS
GARY*          MOSUNNY   77  59  53 N12       29.87R
KNOX*          SUNNY     79  59  50 NW12      29.85S
SOUTH BEND     SUNNY     79  60  52 NW13      29.86R
6HR MIN TEMP:  65; 6HR MAX TEMP:  80;

ELKHART*       MOSUNNY   79  55  44 NW15G21   29.85S
GOSHEN         MOSUNNY   79  65  62 NW13      29.83F
6HR MIN TEMP:  65; 6HR MAX TEMP:  80;

MONTICELLO*    MOSUNNY   81  68  64 NW10      29.85S
6HR MIN TEMP:  66; 6HR MAX TEMP:  81;

LOGANSPORT*    SUNNY     81  59  47 NW6       29.86S
WARSAW*        PTSUNNY   79  64  61 NW12      29.84S
ANGOLA*        PTSUNNY   82  66  57 W10       29.83S
FORT WAYNE     MOSUNNY   81  66  60 W9        29.84F
6HR MIN TEMP:  65; 6HR MAX TEMP:  81;


$$
INZ028>050-031900-
CENTRAL INDIANA

CITY           SKY/WX    TMP DP  RH WIND       PRES   REMARKS
LAFAYETTE      SUNNY     83  65  54 NW9G16    29.85R
6HR MIN TEMP:  68; 6HR MAX TEMP:  83;

KOKOMO*        SUNNY     82  66  57 NW12      29.84S
6HR MIN TEMP:  66; 6HR MAX TEMP:  82;

MUNCIE*        MOSUNNY   78  70  76 S10       29.84F
6HR MIN TEMP:  64; 6HR MAX TEMP:  79;

INDIANAPOLIS   PTSUNNY   87  69  54 W13G21    29.83F
6HR MIN TEMP:  73; 6HR MAX TEMP:  87;


$$
MIZ043>046-050>051-056>058-064>065-071>073-077>080-031900-
SOUTHWEST LOWER MICHIGAN

CITY           SKY/WX    TMP DP  RH WIND       PRES   REMARKS
BATTLE CREEK     N/A    N/A N/A N/A MISG      29.83R
BENTON HARBOR  SUNNY     73  59  61 NW9G18    29.86R
6HR MIN TEMP:  66; 6HR MAX TEMP:  74;

COLDWATER*     MOSUNNY   76  60  57 W10G16    29.82S
6HR MIN TEMP:  63; 6HR MAX TEMP:  78;

HILLSDALE*     MOSUNNY   79  63  58 W10G16    29.83S
6HR MIN TEMP:  64; 6HR MAX TEMP:  79;

HOLLAND        SUNNY     76  58  53 W9        29.85R
6HR MIN TEMP:  65; 6HR MAX TEMP:  76;

GRAND RAPIDS   MOSUNNY   79  50  36 W17G25    29.81S
6HR MIN TEMP:  63; 6HR MAX TEMP:  79;

KALAMAZOO      MOSUNNY   79  54  41 W16G25    29.83R
6HR MIN TEMP:  65; 6HR MAX TEMP:  80;

STURGIS*       MOSUNNY   79  61  53 W10G20    29.83R
THREE RIVERS*  PTSUNNY   78  57  49 W17       29.84R
6HR MIN TEMP:  64; 6HR MAX TEMP:  80;


$$
OHZ001>008-015>018-024>025-031900-
NORTHWEST OHIO

CITY           SKY/WX    TMP DP  RH WIND       PRES   REMARKS
DEFIANCE       MOSUNNY   81  63  54 NW12G18   29.83S
6HR MIN TEMP:  64; 6HR MAX TEMP:  81;

FINDLAY        PTSUNNY   79  68  69 W10G21    29.83S
6HR MIN TEMP:  64; 6HR MAX TEMP:  79;

TOLEDO EXPRESS MOSUNNY   78  64  61 W10       29.81S
6HR MIN TEMP:  63; 6HR MAX TEMP:  79;

TOLEDO METCALF MOSUNNY   81  63  54 SW9       29.82S
6HR MIN TEMP:  64; 6HR MAX TEMP:  81;

LIMA           CLOUDY    76  68  76 W12       29.85S
6HR MIN TEMP:  64; 6HR MAX TEMP:  76;


$$
AND FOR LAKE MICHIGAN COASTAL AND OPEN LAKE BUOY OBSERVATIONS

STATION/POSITION TEMP    WIND        PRES    VSBY  WAVE
                 AIR SEA DIR/SP/G                  HT/PER
                 (F)     (DEG/KT/KT) (MB)    (MI)  (FT/S)
CALUMET HARBOR    75      10/  9/ 12   N/A
MICHIGAN CITY     72     310/  9/ 11   N/A
BURNS HARBOR      71     360/  7/  9 1011.9S
SAINT JOSEPH      71     290/  9/ 10 1011.2F
4 MI NW BRIDGMAN  70 73  340/ 12/ 12   N/A           3/ 4
MICHIGAN CITY     71 74  330/ 10/ 12   N/A           3/ 4

$$
&&


USA.gov is the U.S. government's official web portal to all federal, state and local government web resources and services.